[[{"header":{"parameterUnit":"m.s-1","parameterCategory":2,"la1":30.2991,"la2":30.254,"lo1":-89.0895,"lo2":-89.0444,"dy":0.0017,"dx":0.0017,"nx":28,"ny":28,"refTime":"2024-11-25T09:00:00:Z","depth":"0","parameterNumber":2,"parameterNumberName":"U-component_of_CURRENTS"},"data":[0,0,0,0,0,0,0,0,0,0,0,0,0,0,0,0,0,0,0,0,0,0,0,0,0,0,0,0,0,0,0,0,0,0,0,0,0,0,0,0,0,0,0,0,0,0,0,0,0,0,0,0,0,0,0,0,0,0,0.1795,0.1797,0,0.1905,0.1906,0.1907,0.1933,0.1933,0.1933,0.1932,0.1972,0.1973,0.1974,0,0,0,0,0,0,0,0,0,0,0,0,0,0.1712,0.1712,0.1795,0.1797,0.1799,0.1905,0.1906,0.1907,0.1933,0.1933,0.1933,0.1932,0.1971,0.1973,0.1974,0,0,0,0,0,0,0,0,0,0,0,0,0,0.1772,0.1712,0.1795,0.1828,0.1833,0.1905,0.1906,0.1907,0.1933,0.1933,0.1932,0.1932,0.1971,0.1973,0.1975,0.1994,0,0,0.1981,0.1981,0,0,0,0,0,0,0,0,0.1768,0.1774,0.1822,0.1826,0.1832,0.191,0.1892,0.1935,0.1933,0.1889,0.1932,0.1932,0.1948,0.1952,0.1967,0.1996,0.1997,0.1981,0.1982,0.1983,0.1983,0,0,0,0,0,0,0,0.1764,0.177,0.1833,0.1824,0.183,0.1875,0.1881,0.19,0.1914,0.1893,0.1897,0.1918,0.195,0.1965,0.1968,0.1998,0.1981,0.1982,0.1984,0.1984,0.208,0.2081,0,0,0,0,0,0,0.1756,0.1766,0.183,0.1837,0.1805,0.1876,0.1883,0.1881,0.1916,0.1923,0.1918,0.1919,0.1962,0.1966,0.1969,0.2011,0.1983,0.1984,0.1986,0.2078,0.208,0.2082,0,0,0,0,0,0,0.1753,0.176,0.1825,0.181,0.1822,0.1878,0.1875,0.1883,0.19,0.1936,0.1941,0.1927,0.1962,0.1967,0.2002,0.2012,0.1985,0.1987,0.2077,0.2079,0.2081,0.2084,0,0,0,0,0,0,0.175,0.1757,0.1747,0.1808,0.1823,0.1873,0.1876,0.1886,0.1916,0.1918,0.1946,0.1949,0.1962,0.1999,0.2004,0.2014,0.1989,0.2075,0.2078,0.208,0.2082,0.2086,0.2089,0,0,0,0,0,0.1746,0.1738,0.1745,0.1753,0.1807,0.1875,0.1886,0.1922,0.1917,0.1932,0.1955,0.1948,0.2019,0.2002,0.2007,0.2018,0.2074,0.2077,0.208,0.2081,0.2085,0.2089,0,0,0,0,0,0,0.1701,0.1742,0.1751,0.1755,0.1813,0.1881,0.1896,0.1921,0.1952,0.1944,0.1967,0.1973,0.2007,0.2018,0.1999,0.2057,0.2045,0.2049,0.2044,0.2048,0.2051,0.2051,0.199,0,0,0,0,0,0.1686,0.1684,0.1747,0.1754,0.1776,0.1833,0.1861,0.1891,0.1933,0.1945,0.1968,0.1993,0.2026,0.204,0.2066,0.2097,0.2117,0.2109,0.2113,0.2115,0.2121,0.2173,0.2182,0.2092,0.2092,0.2092,0,0,0.1669,0.1696,0.1693,0.1745,0.1782,0.1828,0.1847,0.1892,0.1923,0.1944,0.1975,0.2003,0.2038,0.2076,0.2091,0.2084,0.2151,0.2119,0.2121,0.2125,0.2177,0.2186,0.2194,0.2094,0.2094,0.2093,0,0,0.1665,0.166,0.1669,0.1713,0.1778,0.1818,0.1831,0.1897,0.1912,0.1958,0.1982,0.2025,0.2062,0.2101,0.2122,0.2163,0.2168,0.2165,0.2181,0.2232,0.2239,0.2246,0.2277,0.2287,0.2167,0.2167,0.2167,0,0.1634,0.1667,0.1689,0.1726,0.1762,0.1812,0.1852,0.1881,0.1952,0.1968,0.1965,0.2054,0.2078,0.2143,0.216,0.217,0.2192,0.2157,0.2235,0.2243,0.225,0.2279,0.229,0.2167,0.2167,0.2167,0.2167,0,0.1661,0.1684,0.1698,0.175,0.1789,0.1832,0.1885,0.1912,0.1931,0.1969,0.2025,0.2074,0.2129,0.2146,0.2165,0.2232,0.2229,0.2231,0.2219,0.2259,0.2288,0.2299,0.2168,0.2168,0.2168,0.2168,0,0,0.1607,0.169,0.1697,0.1731,0.1803,0.1844,0.1879,0.1939,0.1963,0.2014,0.2054,0.2125,0.2149,0.2178,0.2214,0.2263,0.233,0.2267,0.227,0.2288,0.2431,0.2487,0.2504,0.2343,0.2345,0.2347,0.2429,0,0.1624,0.1685,0.1725,0.1792,0.1835,0.1877,0.191,0.1961,0.1995,0.204,0.209,0.2141,0.2161,0.2192,0.2246,0.2307,0.236,0.2306,0.2399,0.2402,0.2439,0.252,0.2537,0.2618,0.2439,0.2441,0.2442,0,0.1668,0.1696,0.1751,0.1823,0.1839,0.1878,0.1935,0.1972,0.2032,0.2053,0.2112,0.215,0.2233,0.2239,0.2365,0.2328,0.2384,0.2429,0.2433,0.2494,0.2479,0.2553,0.2644,0.2503,0.2459,0.2458,0.2457,0,0.1668,0.1734,0.1771,0.1796,0.1866,0.1886,0.1919,0.1978,0.201,0.2067,0.2105,0.2183,0.2236,0.2317,0.2414,0.239,0.255,0.2522,0.2627,0.263,0.267,0.2674,0.2631,0.2623,0.2623,0.2623,0.2622,0,0.1701,0.1741,0.1769,0.1794,0.1828,0.1877,0.1924,0.1956,0.2017,0.2066,0.2115,0.2188,0.2262,0.236,0.2429,0.2576,0.2565,0.2656,0.2673,0.2672,0.2675,0.2574,0.2476,0.2626,0.2625,0.2624,0.2624,0,0.1724,0.1751,0.1796,0.183,0.1841,0.1864,0.1928,0.1958,0.2015,0.2082,0.2103,0.2203,0.2328,0.242,0.2553,0.2611,0.2666,0.2784,0.2771,0.2787,0.2742,0.2645,0.2602,0.2534,0.2901,0.2903,0.2905,0,0.174,0.1758,0.1794,0.1806,0.1822,0.1859,0.1883,0.1946,0.1984,0.2108,0.2141,0.2277,0.2383,0.26,0.273,0.2871,0.2746,0.2959,0.2928,0.2768,0.2671,0.2541,0.2475,0.297,0.2972,0.2974,0.2975,0,0.1723,0.1735,0.1744,0.1774,0.1798,0.184,0.1882,0.192,0.1997,0.2073,0.2188,0.2286,0.2518,0.2679,0.2871,0.2972,0.2814,0.3002,0.2846,0.2745,0.2592,0.2525,0.2855,0.2991,0.2989,0.2988,0.2987,0.2987,0.168,0.167,0.1673,0.1712,0.1742,0.1789,0.1829,0.1894,0.1966,0.2073,0.2182,0.2328,0.2569,0.2858,0.2948,0.304,0.2933,0.2989,0.2892,0.278,0.2694,0.306,0.321,0.3209,0.3209,0.3209,0.3209,0,0.1593,0.1587,0.1606,0.1642,0.1672,0.172,0.1794,0.1835,0.1915,0.2047,0.2159,0.2385,0.2598,0.279,0.2978,0.2919,0.2835,0.2818,0.2604,0.2551,0.2907,0.2889,0.2964,0.2964,0.2964,0.2964,0.2964,0.2964,0.154,0.1515,0.1533,0.1546,0.1586,0.1627,0.1673,0.1752,0.1851,0.1974,0.2095,0.2209,0.2429,0.262,0.2666,0.2668,0.2417,0.2393,0.2255,0.2457,0.2463,0.2468,0.2428,0.2405,0.2404,0.19,0.1895,0.1892]},{"header":{"parameterUnit":"m.s-1","parameterCategory":2,"la1":30.2991,"la2":30.254,"lo1":-89.0895,"lo2":-89.0444,"dy":0.0017,"dx":0.0017,"nx":28,"ny":28,"refTime":"2024-11-25T09:00:00:Z","depth":"0","parameterNumber":3,"parameterNumberName":"V-component_of_CURRENTS"},"data":[0,0,0,0,0,0,0,0,0,0,0,0,0,0,0,0,0,0,0,0,0,0,0,0,0,0,0,0,0,0,0,0,0,0,0,0,0,0,0,0,0,0,0,0,0,0,0,0,0,0,0,0,0,0,0,0,0,0,-0.1908,-0.191,0,-0.1958,-0.1957,-0.1957,-0.1974,-0.1975,-0.1976,-0.1977,-0.2021,-0.2021,-0.2022,0,0,0,0,0,0,0,0,0,0,0,0,0,-0.1855,-0.1855,-0.1908,-0.191,-0.1911,-0.1958,-0.1957,-0.1957,-0.1974,-0.1975,-0.1976,-0.1977,-0.2021,-0.2021,-0.2022,0,0,0,0,0,0,0,0,0,0,0,0,0,-0.1877,-0.1854,-0.1908,-0.1934,-0.1938,-0.1958,-0.1957,-0.1957,-0.1974,-0.1975,-0.1976,-0.1977,-0.2021,-0.2021,-0.2022,-0.1999,0,0,-0.2023,-0.2024,0,0,0,0,0,0,0,0,-0.1876,-0.1878,-0.1928,-0.1932,-0.1937,-0.1971,-0.1955,-0.1975,-0.1973,-0.1948,-0.1977,-0.1978,-0.201,-0.2012,-0.2002,-0.2001,-0.2003,-0.2024,-0.2024,-0.2024,-0.2024,0,0,0,0,0,0,0,-0.1874,-0.1876,-0.1916,-0.193,-0.1935,-0.1953,-0.1956,-0.1958,-0.1962,-0.195,-0.1954,-0.1978,-0.2011,-0.2001,-0.2003,-0.2004,-0.2023,-0.2024,-0.2024,-0.2025,-0.1999,-0.1998,0,0,0,0,0,0,-0.1888,-0.1874,-0.1915,-0.1919,-0.1922,-0.1954,-0.1957,-0.1949,-0.1962,-0.1969,-0.1977,-0.1979,-0.2,-0.2003,-0.2005,-0.1974,-0.2024,-0.2025,-0.2025,-0.2,-0.1999,-0.1998,0,0,0,0,0,0,-0.1886,-0.189,-0.1913,-0.1909,-0.1915,-0.1954,-0.1945,-0.195,-0.1948,-0.1985,-0.1989,-0.1973,-0.2001,-0.2004,-0.2,-0.1977,-0.2025,-0.2025,-0.2001,-0.2,-0.1998,-0.1916,0,0,0,0,0,0,-0.1884,-0.1888,-0.1871,-0.1909,-0.1916,-0.1923,-0.1945,-0.195,-0.1966,-0.1968,-0.1983,-0.1988,-0.2002,-0.1999,-0.2,-0.1978,-0.2026,-0.2003,-0.2001,-0.1999,-0.192,-0.1912,-0.1905,0,0,0,0,0,-0.1881,-0.1845,-0.1869,-0.1874,-0.1895,-0.1924,-0.1927,-0.1953,-0.1964,-0.1955,-0.1962,-0.1988,-0.1988,-0.1998,-0.2,-0.1978,-0.2003,-0.2001,-0.1999,-0.1923,-0.1914,-0.1905,0,0,0,0,0,0,-0.1814,-0.1846,-0.1872,-0.1849,-0.1892,-0.1931,-0.1916,-0.195,-0.1945,-0.1942,-0.197,-0.1974,-0.1963,-0.1981,-0.1992,-0.1966,-0.2002,-0.2,-0.1944,-0.1935,-0.1927,-0.1906,-0.2026,0,0,0,0,0,-0.1795,-0.177,-0.1832,-0.1815,-0.1827,-0.1873,-0.1884,-0.1915,-0.1932,-0.1931,-0.1944,-0.1952,-0.1952,-0.1954,-0.1958,-0.194,-0.1949,-0.1929,-0.1921,-0.1915,-0.1899,-0.1898,-0.1889,-0.199,-0.199,-0.199,0,0,-0.1765,-0.1783,-0.1769,-0.1799,-0.1819,-0.1832,-0.1877,-0.1893,-0.1887,-0.1936,-0.1902,-0.1926,-0.1943,-0.1921,-0.1918,-0.1935,-0.1889,-0.1912,-0.1906,-0.1894,-0.1895,-0.1885,-0.1876,-0.1989,-0.1989,-0.1989,0,0,-0.1708,-0.1707,-0.168,-0.171,-0.176,-0.1789,-0.1798,-0.184,-0.1831,-0.1826,-0.1854,-0.1864,-0.1861,-0.1868,-0.1871,-0.1825,-0.1851,-0.1831,-0.1771,-0.1769,-0.1761,-0.1753,-0.1741,-0.1733,-0.1825,-0.1825,-0.1824,0,-0.1665,-0.1657,-0.1681,-0.1682,-0.1698,-0.1768,-0.1766,-0.1763,-0.1799,-0.1773,-0.1805,-0.18,-0.183,-0.1799,-0.1789,-0.1807,-0.1805,-0.1803,-0.1758,-0.1751,-0.1745,-0.1734,-0.1727,-0.182,-0.1821,-0.1821,-0.1822,0,-0.1622,-0.1613,-0.1596,-0.1614,-0.1629,-0.1636,-0.1669,-0.1662,-0.1673,-0.1676,-0.1648,-0.169,-0.1689,-0.1706,-0.1733,-0.1702,-0.1714,-0.175,-0.1779,-0.173,-0.1722,-0.1715,-0.1814,-0.1816,-0.1817,-0.1818,0,0,-0.1529,-0.1553,-0.1552,-0.155,-0.1596,-0.1601,-0.1575,-0.1564,-0.153,-0.1548,-0.1495,-0.152,-0.1549,-0.1556,-0.1604,-0.1612,-0.1581,-0.1657,-0.1659,-0.1638,-0.1561,-0.1514,-0.1503,-0.1608,-0.1606,-0.1605,-0.1568,0,-0.149,-0.1466,-0.1497,-0.1476,-0.1466,-0.1508,-0.1479,-0.1473,-0.1461,-0.1419,-0.1436,-0.1418,-0.1485,-0.15,-0.151,-0.1571,-0.1562,-0.1587,-0.1616,-0.1617,-0.1576,-0.1493,-0.1404,-0.1358,-0.1562,-0.1561,-0.156,0,-0.1455,-0.144,-0.1404,-0.14,-0.1398,-0.1396,-0.1361,-0.1346,-0.1303,-0.1294,-0.1276,-0.1291,-0.1297,-0.1374,-0.1414,-0.1424,-0.1473,-0.1522,-0.1523,-0.1501,-0.1557,-0.1443,-0.1339,-0.1395,-0.1551,-0.1552,-0.1552,0,-0.1385,-0.138,-0.1338,-0.134,-0.1343,-0.1318,-0.1323,-0.1295,-0.1251,-0.1212,-0.1186,-0.1187,-0.1198,-0.125,-0.1343,-0.1374,-0.1385,-0.1445,-0.1437,-0.1435,-0.1374,-0.1368,-0.132,-0.1449,-0.145,-0.145,-0.145,0,-0.1332,-0.1301,-0.13,-0.1271,-0.1222,-0.1253,-0.119,-0.1191,-0.116,-0.1082,-0.1117,-0.1073,-0.117,-0.1184,-0.1277,-0.1317,-0.1327,-0.1393,-0.1409,-0.1342,-0.1334,-0.1395,-0.1458,-0.1448,-0.1449,-0.1449,-0.1449,0,-0.1251,-0.1263,-0.1205,-0.1185,-0.1183,-0.114,-0.1124,-0.1068,-0.1076,-0.0982,-0.0966,-0.0972,-0.0989,-0.1073,-0.1159,-0.1226,-0.1294,-0.1303,-0.1207,-0.1212,-0.1249,-0.1311,-0.1289,-0.1305,-0.1267,-0.1265,-0.1264,0,-0.1201,-0.1159,-0.1114,-0.1086,-0.1074,-0.1034,-0.0999,-0.1013,-0.0955,-0.0907,-0.0844,-0.0838,-0.0791,-0.0888,-0.1005,-0.1102,-0.1211,-0.1104,-0.1149,-0.1198,-0.1282,-0.1343,-0.1364,-0.1038,-0.1035,-0.1032,-0.103,0,-0.1076,-0.1057,-0.1,-0.0951,-0.0912,-0.0862,-0.0821,-0.0779,-0.0764,-0.0705,-0.0621,-0.0582,-0.0642,-0.0667,-0.0809,-0.0904,-0.1104,-0.1054,-0.1128,-0.1094,-0.1134,-0.1175,-0.1124,-0.1008,-0.101,-0.1012,-0.1013,-0.1014,-0.0974,-0.0899,-0.0837,-0.079,-0.0755,-0.0693,-0.0641,-0.0587,-0.0503,-0.0388,-0.0407,-0.0279,-0.0362,-0.0525,-0.0687,-0.0869,-0.0948,-0.0922,-0.0992,-0.1049,-0.1057,-0.0942,-0.0839,-0.084,-0.0841,-0.0842,-0.0843,0,-0.0848,-0.077,-0.0693,-0.0633,-0.0573,-0.0592,-0.0514,-0.0442,-0.0329,-0.018,-0.0094,0.0031,-0.0086,-0.0278,-0.0539,-0.0747,-0.0876,-0.0873,-0.0944,-0.0972,-0.0868,-0.085,-0.0715,-0.0715,-0.0715,-0.0715,-0.0715,-0.0715,-0.0776,-0.0654,-0.06,-0.0473,-0.0444,-0.0351,-0.0305,-0.0201,-0.0086,0.0151,0.0325,0.0408,0.0353,-0.0211,-0.0599,-0.0743,-0.0924,-0.0951,-0.1077,-0.1016,-0.1027,-0.1037,-0.1034,-0.0939,-0.094,-0.1122,-0.1124,-0.1126]}],[{"header":{"parameterUnit":"m.s-1","parameterCategory":2,"la1":30.2991,"la2":30.254,"lo1":-89.0895,"lo2":-89.0444,"dy":0.0017,"dx":0.0017,"nx":28,"ny":28,"refTime":"2024-11-25T09:00:00:Z","depth":"2","parameterNumber":2,"parameterNumberName":"U-component_of_CURRENTS"},"data":[0,0,0,0,0,0,0,0,0,0,0,0,0,0,0,0,0,0,0,0,0,0,0,0,0,0,0,0,0,0,0,0,0,0,0,0,0,0,0,0,0,0,0,0,0,0,0,0,0,0,0,0,0,0,0,0,0,0,0.0397,0.0398,0,0.0435,0.0435,0.0435,0.0405,0.0404,0.0404,0.0403,0.038,0.038,0.038,0,0,0,0,0,0,0,0,0,0,0,0,0,0.0296,0.0297,0.0397,0.0398,0.04,0.0435,0.0435,0.0435,0.0405,0.0404,0.0404,0.0403,0.038,0.038,0.038,0,0,0,0,0,0,0,0,0,0,0,0,0,0.033,0.0298,0.0397,0.0395,0.0396,0.0435,0.0435,0.0435,0.0405,0.0404,0.0403,0.0403,0.038,0.038,0.038,0.0395,0,0,0.0379,0.0379,0,0,0,0,0,0,0,0,0.0328,0.0332,0.0394,0.0395,0.0396,0.0422,0.0391,0.0421,0.0405,0.0393,0.0403,0.0402,0.0394,0.0393,0.0391,0.0394,0.0393,0.0379,0.0379,0.0379,0.0379,0,0,0,0,0,0,0,0.0325,0.0331,0.0404,0.0396,0.0397,0.0392,0.0395,0.0396,0.039,0.0394,0.0394,0.0411,0.0393,0.0391,0.039,0.0393,0.0379,0.0379,0.0379,0.0379,0.0478,0.048,0,0,0,0,0,0,0.0339,0.0329,0.0403,0.0406,0.0369,0.0395,0.0398,0.0408,0.0392,0.0391,0.0412,0.041,0.0392,0.0391,0.0389,0.0472,0.0379,0.0379,0.0379,0.0475,0.0478,0.0481,0,0,0,0,0,0,0.0336,0.0344,0.0402,0.0375,0.0383,0.0398,0.0409,0.0409,0.0418,0.0408,0.0404,0.0423,0.0391,0.039,0.0428,0.0468,0.0379,0.0379,0.0472,0.0476,0.048,0.0594,0,0,0,0,0,0,0.0333,0.0343,0.0354,0.0376,0.0385,0.044,0.0411,0.0411,0.0433,0.0431,0.0416,0.0412,0.0391,0.0429,0.0428,0.0466,0.0379,0.0469,0.0474,0.0479,0.0587,0.0601,0.0614,0,0,0,0,0,0.0329,0.0355,0.0354,0.0363,0.0399,0.0443,0.0447,0.0449,0.0435,0.045,0.0456,0.0413,0.046,0.0431,0.0429,0.0468,0.0466,0.0472,0.0478,0.0581,0.0599,0.0614,0,0,0,0,0,0,0.0314,0.0356,0.0355,0.039,0.0421,0.0441,0.0468,0.0461,0.0476,0.0478,0.045,0.0449,0.0498,0.0473,0.0442,0.0514,0.0455,0.0461,0.0533,0.055,0.0563,0.0573,0.0379,0,0,0,0,0,0.0319,0.0355,0.0384,0.0419,0.0438,0.0452,0.0471,0.0473,0.0493,0.0497,0.0498,0.0503,0.0522,0.0528,0.0539,0.0576,0.0584,0.0601,0.0614,0.0626,0.0636,0.0688,0.0707,0.0502,0.0501,0.0501,0,0,0.0327,0.0357,0.0377,0.042,0.0446,0.0482,0.046,0.0504,0.0536,0.0495,0.0548,0.0554,0.0545,0.0596,0.0614,0.0579,0.0698,0.0634,0.0643,0.0647,0.0696,0.0716,0.0734,0.0506,0.0505,0.0504,0,0,0.0377,0.0389,0.0437,0.0462,0.0513,0.0522,0.0538,0.0572,0.0589,0.0639,0.0628,0.0667,0.0683,0.0699,0.0702,0.0798,0.0773,0.0797,0.0867,0.0919,0.0936,0.0951,0.1022,0.1042,0.0797,0.0798,0.0798,0,0.0382,0.0438,0.0459,0.0507,0.0536,0.0542,0.0589,0.0612,0.0656,0.0697,0.0671,0.0748,0.0734,0.0806,0.0837,0.0828,0.0859,0.0802,0.0937,0.0951,0.0965,0.1033,0.1054,0.0804,0.0803,0.0802,0.0802,0,0.0464,0.0501,0.0537,0.0594,0.0627,0.0672,0.0705,0.0747,0.0765,0.0798,0.0886,0.0884,0.0937,0.0932,0.0908,0.1004,0.1,0.0952,0.0892,0.0992,0.1059,0.1078,0.0813,0.081,0.0809,0.0807,0,0,0.0486,0.0574,0.0585,0.0616,0.0671,0.0706,0.0778,0.0853,0.0914,0.0958,0.1051,0.1082,0.1104,0.1111,0.1097,0.1119,0.1242,0.1079,0.1079,0.1147,0.1387,0.137,0.1389,0.1219,0.1222,0.1225,0.1408,0,0.0539,0.0635,0.0665,0.0742,0.0788,0.0815,0.0878,0.0949,0.1007,0.1102,0.1136,0.1207,0.1167,0.1194,0.1232,0.1229,0.1294,0.1199,0.1282,0.1285,0.1254,0.1411,0.1222,0.1367,0.1427,0.143,0.1432,0,0.0604,0.0657,0.0744,0.0816,0.084,0.0882,0.0987,0.1045,0.1174,0.1222,0.1322,0.136,0.1444,0.1368,0.1469,0.1413,0.1433,0.1416,0.1422,0.1374,0.1304,0.1271,0.14,0.1465,0.1462,0.146,0.1458,0,0.0617,0.0706,0.0776,0.0799,0.0885,0.0934,0.0979,0.1096,0.1171,0.1309,0.1382,0.1498,0.1539,0.1594,0.1609,0.1552,0.1701,0.1616,0.1636,0.1635,0.1474,0.1453,0.1715,0.1715,0.1715,0.1714,0.1714,0,0.0661,0.0717,0.0784,0.0819,0.0902,0.0951,0.1053,0.1124,0.125,0.1369,0.145,0.156,0.1588,0.1687,0.1697,0.1758,0.18,0.1697,0.1694,0.1513,0.1494,0.1553,0.1532,0.1721,0.1719,0.1718,0.1717,0,0.0724,0.0736,0.0817,0.0896,0.0915,0.0983,0.1082,0.1162,0.1261,0.1421,0.1473,0.1624,0.1749,0.1806,0.188,0.1853,0.1906,0.1918,0.1719,0.169,0.1787,0.177,0.197,0.1971,0.1972,0.1973,0.1974,0,0.0778,0.0829,0.0897,0.091,0.0952,0.1029,0.1083,0.1168,0.1267,0.1474,0.1569,0.1728,0.1846,0.1974,0.1942,0.1999,0.2017,0.1858,0.1701,0.1844,0.1821,0.1802,0.1783,0.155,0.1547,0.1545,0.1543,0,0.0874,0.0894,0.0936,0.0997,0.1021,0.1092,0.1182,0.1241,0.1368,0.1481,0.1662,0.1759,0.1883,0.1834,0.1886,0.1893,0.1827,0.1813,0.2044,0.1506,0.146,0.1433,0.1427,0.1523,0.1525,0.1526,0.1528,0.1528,0.0915,0.0965,0.0985,0.1054,0.1084,0.1142,0.1175,0.1252,0.1348,0.1478,0.1641,0.1683,0.1652,0.1617,0.165,0.1679,0.1761,0.1655,0.1657,0.1663,0.1573,0.153,0.1591,0.1594,0.1596,0.1597,0.1599,0,0.0934,0.097,0.104,0.1058,0.1117,0.1149,0.123,0.1237,0.1283,0.1374,0.1474,0.1321,0.1309,0.1365,0.1335,0.1357,0.1305,0.136,0.1234,0.1255,0.1273,0.1157,0.107,0.1069,0.1068,0.1067,0,0,0.0915,0.0933,0.099,0.1048,0.1104,0.1139,0.1164,0.1152,0.1176,0.1127,0.1098,0.1171,0.1218,0.1036,0.1067,0.1074,0.1161,0.1065,0.1478,0.1343,0.136,0.1427,0.1272,0,0,0,0,0]},{"header":{"parameterUnit":"m.s-1","parameterCategory":2,"la1":30.2991,"la2":30.254,"lo1":-89.0895,"lo2":-89.0444,"dy":0.0017,"dx":0.0017,"nx":28,"ny":28,"refTime":"2024-11-25T09:00:00:Z","depth":"2","parameterNumber":3,"parameterNumberName":"V-component_of_CURRENTS"},"data":[0,0,0,0,0,0,0,0,0,0,0,0,0,0,0,0,0,0,0,0,0,0,0,0,0,0,0,0,0,0,0,0,0,0,0,0,0,0,0,0,0,0,0,0,0,0,0,0,0,0,0,0,0,0,0,0,0,0,0.0854,0.0853,0,0.079,0.0789,0.0789,0.0712,0.071,0.0709,0.0708,0.0556,0.0553,0.055,0,0,0,0,0,0,0,0,0,0,0,0,0,0.0888,0.0888,0.0854,0.0853,0.0853,0.079,0.0789,0.0789,0.0712,0.071,0.0709,0.0707,0.0557,0.0554,0.055,0,0,0,0,0,0,0,0,0,0,0,0,0,0.0855,0.0888,0.0854,0.0806,0.0801,0.079,0.0789,0.0788,0.0712,0.071,0.0708,0.0707,0.0558,0.0554,0.055,0.0562,0,0,0.0537,0.0535,0,0,0,0,0,0,0,0,0.0857,0.0854,0.0814,0.0809,0.0804,0.0756,0.0746,0.0708,0.0713,0.0747,0.0708,0.0706,0.0616,0.0607,0.0601,0.0554,0.0548,0.0536,0.0534,0.0532,0.0531,0,0,0,0,0,0,0,0.0859,0.0856,0.083,0.0813,0.0807,0.078,0.0773,0.0738,0.0692,0.0744,0.0738,0.073,0.0612,0.0606,0.0597,0.0546,0.0536,0.0533,0.053,0.0528,0.0402,0.0402,0,0,0,0,0,0,0.0869,0.0859,0.0832,0.0828,0.0825,0.0781,0.0774,0.0774,0.0694,0.068,0.0732,0.0727,0.0614,0.0602,0.0591,0.0543,0.0532,0.0528,0.0525,0.0403,0.0402,0.0401,0,0,0,0,0,0,0.087,0.0868,0.0834,0.084,0.0834,0.0782,0.0784,0.0774,0.0732,0.0685,0.067,0.0696,0.0612,0.0597,0.0545,0.0539,0.0526,0.0522,0.0404,0.0403,0.0402,0.0484,0,0,0,0,0,0,0.0872,0.0869,0.0861,0.0841,0.0834,0.0815,0.0785,0.0774,0.0732,0.0724,0.0651,0.0637,0.0609,0.0552,0.0541,0.0532,0.0519,0.0405,0.0403,0.0402,0.0482,0.0486,0.0489,0,0,0,0,0,0.0873,0.0873,0.0861,0.0857,0.0829,0.0815,0.0808,0.0766,0.0732,0.0719,0.0672,0.0637,0.0534,0.0549,0.0536,0.0526,0.0406,0.0404,0.0402,0.0481,0.0485,0.0488,0,0,0,0,0,0,0.0869,0.0865,0.0851,0.0845,0.0825,0.0801,0.0781,0.0753,0.0707,0.0687,0.0637,0.0621,0.0574,0.0533,0.055,0.0481,0.0459,0.0455,0.0523,0.0527,0.053,0.0538,0.0515,0,0,0,0,0,0.0872,0.0864,0.0859,0.084,0.084,0.0806,0.0788,0.0762,0.0725,0.0701,0.0651,0.0595,0.0565,0.0531,0.0494,0.0459,0.0423,0.0437,0.044,0.0444,0.0439,0.0394,0.0393,0.0396,0.0396,0.0396,0,0,0.0858,0.0853,0.0845,0.0838,0.0819,0.0826,0.0789,0.076,0.0754,0.0693,0.065,0.0606,0.0558,0.0527,0.0499,0.0486,0.0425,0.0442,0.0445,0.0438,0.0392,0.0392,0.0392,0.0394,0.0395,0.0395,0,0,0.0839,0.0833,0.0832,0.0833,0.0814,0.0808,0.0796,0.0766,0.0742,0.0709,0.0667,0.0621,0.0555,0.0532,0.0512,0.0504,0.0449,0.0474,0.0493,0.045,0.0451,0.045,0.0417,0.0412,0.047,0.047,0.047,0,0.0806,0.0834,0.0823,0.0835,0.0838,0.0803,0.0814,0.0798,0.0745,0.0696,0.0696,0.0595,0.0566,0.0531,0.054,0.0515,0.0476,0.0493,0.0458,0.0457,0.0455,0.042,0.0415,0.0474,0.0474,0.0473,0.0473,0,0.0811,0.0834,0.0834,0.0849,0.0845,0.0847,0.0844,0.0822,0.0784,0.0718,0.0655,0.0644,0.0546,0.0566,0.056,0.0524,0.0498,0.0478,0.0459,0.046,0.0423,0.0416,0.0479,0.0478,0.0477,0.0476,0,0,0.0739,0.082,0.082,0.0849,0.0862,0.0858,0.0864,0.0823,0.0768,0.0728,0.0656,0.0647,0.0555,0.053,0.0517,0.0535,0.0518,0.0505,0.0501,0.0491,0.0418,0.0434,0.0427,0.0487,0.0486,0.0485,0.0403,0,0.0742,0.0799,0.0827,0.0865,0.0909,0.0902,0.0908,0.0849,0.0773,0.0686,0.0647,0.0567,0.0561,0.053,0.0521,0.054,0.0498,0.0541,0.04,0.0396,0.0426,0.0419,0.0375,0.03,0.0395,0.0394,0.0393,0,0.075,0.0801,0.0845,0.0917,0.0925,0.0909,0.0875,0.0866,0.0735,0.0689,0.0566,0.0474,0.0462,0.0473,0.0445,0.0467,0.0407,0.0441,0.0437,0.0415,0.0398,0.0308,0.0283,0.0381,0.0382,0.0383,0.0383,0,0.0724,0.0816,0.0851,0.0872,0.0928,0.0905,0.0899,0.0799,0.0748,0.0634,0.0563,0.0475,0.0467,0.0409,0.0399,0.0401,0.04,0.0385,0.0328,0.0329,0.0245,0.024,0.0293,0.0294,0.0294,0.0294,0.0294,0,0.0734,0.0751,0.0831,0.0835,0.0852,0.0878,0.0801,0.0796,0.0699,0.0616,0.0504,0.0477,0.0456,0.0407,0.0373,0.0347,0.0325,0.0329,0.0306,0.0273,0.0273,0.0301,0.0303,0.0291,0.0292,0.0292,0.0293,0,0.0622,0.0725,0.0749,0.0807,0.0826,0.0794,0.0755,0.0702,0.0648,0.0557,0.0525,0.0468,0.0476,0.0416,0.0404,0.0339,0.0315,0.0272,0.0252,0.023,0.0269,0.0276,0.0202,0.0202,0.0202,0.0202,0.0202,0,0.0554,0.0551,0.0642,0.0677,0.0668,0.0654,0.0661,0.0667,0.0622,0.057,0.055,0.0501,0.0521,0.0496,0.0389,0.0297,0.0297,0.018,0.0176,0.0273,0.0259,0.0266,0.0272,0.009,0.0089,0.0088,0.0088,0,0.0403,0.0412,0.0485,0.0514,0.0552,0.0586,0.0587,0.059,0.0622,0.0611,0.0659,0.0676,0.0586,0.0529,0.0376,0.0301,0.021,0.0162,0.0237,0.0143,0.0167,0.0154,0.0163,0.008,0.0081,0.0082,0.0082,0.0082,0.0296,0.0301,0.0404,0.042,0.0471,0.054,0.0592,0.0661,0.0734,0.0784,0.0787,0.0826,0.065,0.0483,0.0315,0.0118,0.0159,0.0095,0.0097,0.01,0.0124,0.0149,0.0063,0.0063,0.0064,0.0064,0.0065,0,0.0243,0.0281,0.0292,0.0426,0.0434,0.0462,0.0583,0.0682,0.0863,0.0894,0.0968,0.0797,0.0672,0.046,0.0144,0.0001,-0.0027,-0.0035,-0.0058,-0.0049,-0.0041,-0.0025,-0.0126,-0.0127,-0.0127,-0.0128,0,0,0.0248,0.034,0.0357,0.0429,0.0435,0.0548,0.0653,0.083,0.0908,0.1033,0.1018,0.0968,0.0706,0.0432,0.0201,0.0033,0.0036,0.0006,0.0173,0.0181,0.019,0.0046,0.0083,0,0,0,0,0]}],[{"header":{"parameterUnit":"m.s-1","parameterCategory":2,"la1":30.2991,"la2":30.254,"lo1":-89.0895,"lo2":-89.0444,"dy":0.0017,"dx":0.0017,"nx":28,"ny":28,"refTime":"2024-11-25T09:00:00:Z","depth":"4","parameterNumber":2,"parameterNumberName":"U-component_of_CURRENTS"},"data":[0,0,0,0,0,0,0,0,0,0,0,0,0,0,0,0,0,0,0,0,0,0,0,0,0,0,0,0,0,0,0,0,0,0,0,0,0,0,0,0,0,0,0,0,0,0,0,0,0,0,0,0,0,0,0,0,0,0,-0.0177,-0.0177,0,-0.0201,-0.0202,-0.0203,-0.0236,-0.0236,-0.0236,-0.0236,-0.0288,-0.0289,-0.0291,0,0,0,0,0,0,0,0,0,0,0,0,0,-0.0175,-0.0175,-0.0177,-0.0177,-0.0177,-0.0201,-0.0202,-0.0203,-0.0236,-0.0236,-0.0236,-0.0236,-0.0288,-0.0289,-0.0291,0,0,0,0,0,0,0,0,0,0,0,0,0,-0.0189,-0.0175,-0.0178,-0.0193,-0.0194,-0.0201,-0.0202,-0.0203,-0.0236,-0.0236,-0.0236,-0.0236,-0.0287,-0.0289,-0.0291,-0.0299,0,0,-0.0297,-0.0298,0,0,0,0,0,0,0,0,-0.0189,-0.019,-0.0191,-0.0192,-0.0193,-0.0212,-0.022,-0.0235,-0.0236,-0.0225,-0.0236,-0.0236,-0.0262,-0.0266,-0.0276,-0.0301,-0.0304,-0.0297,-0.0298,-0.0299,-0.0299,0,0,0,0,0,0,0,-0.0187,-0.0189,-0.0192,-0.0191,-0.0192,-0.0203,-0.0206,-0.0223,-0.0246,-0.0226,-0.0227,-0.0222,-0.0263,-0.0274,-0.0278,-0.0304,-0.0297,-0.0299,-0.03,-0.03,-0.047,-0.0473,0,0,0,0,0,0,-0.0174,-0.0188,-0.0191,-0.0192,-0.0186,-0.0203,-0.0206,-0.0209,-0.0246,-0.025,-0.0222,-0.0224,-0.0271,-0.0276,-0.028,-0.0402,-0.0299,-0.0301,-0.0302,-0.0467,-0.0471,-0.0474,0,0,0,0,0,0,-0.0174,-0.0174,-0.019,-0.0186,-0.0188,-0.0202,-0.0206,-0.021,-0.0227,-0.0241,-0.0247,-0.0235,-0.0271,-0.0277,-0.0328,-0.04,-0.0301,-0.0303,-0.0463,-0.0468,-0.0473,-0.0575,0,0,0,0,0,0,-0.0174,-0.0174,-0.0186,-0.0186,-0.0188,-0.02,-0.0205,-0.021,-0.0221,-0.0224,-0.0255,-0.0259,-0.0272,-0.0326,-0.033,-0.0401,-0.0305,-0.0458,-0.0465,-0.0471,-0.0567,-0.0583,-0.0596,0,0,0,0,0,-0.0174,-0.0183,-0.0186,-0.0187,-0.0199,-0.02,-0.0203,-0.0216,-0.0221,-0.0233,-0.0272,-0.0259,-0.037,-0.0329,-0.0334,-0.0407,-0.0455,-0.0463,-0.047,-0.0561,-0.058,-0.0596,0,0,0,0,0,0,-0.0191,-0.0186,-0.019,-0.0199,-0.0201,-0.0204,-0.0219,-0.0219,-0.0257,-0.0274,-0.0285,-0.0294,-0.0377,-0.0371,-0.0325,-0.0478,-0.0417,-0.0426,-0.0484,-0.0502,-0.0516,-0.047,-0.0306,0,0,0,0,0,-0.0197,-0.0205,-0.0198,-0.0209,-0.0211,-0.0216,-0.0222,-0.0231,-0.0253,-0.027,-0.0302,-0.035,-0.0411,-0.0435,-0.0482,-0.0541,-0.0481,-0.0598,-0.0613,-0.0625,-0.0594,-0.0566,-0.0573,-0.0499,-0.0499,-0.0499,0,0,-0.0207,-0.0205,-0.0211,-0.0213,-0.0222,-0.0234,-0.0223,-0.0239,-0.0275,-0.027,-0.0351,-0.0398,-0.044,-0.0533,-0.0569,-0.0534,-0.0622,-0.0635,-0.0645,-0.0606,-0.0574,-0.058,-0.0586,-0.0504,-0.0503,-0.0503,0,0,-0.0227,-0.0231,-0.0245,-0.0244,-0.0251,-0.0257,-0.0259,-0.0281,-0.0322,-0.0397,-0.0422,-0.0496,-0.0583,-0.0627,-0.066,-0.0771,-0.0703,-0.0809,-0.0839,-0.0814,-0.0818,-0.0821,-0.0769,-0.0766,-0.0812,-0.0812,-0.0812,0,-0.024,-0.0252,-0.0249,-0.0258,-0.0266,-0.0266,-0.0286,-0.0324,-0.037,-0.0422,-0.0443,-0.0593,-0.0631,-0.0724,-0.0781,-0.0802,-0.0756,-0.0769,-0.0827,-0.0829,-0.0829,-0.0775,-0.0771,-0.0818,-0.0817,-0.0817,-0.0816,0,-0.0262,-0.0275,-0.0283,-0.0298,-0.0312,-0.0325,-0.0361,-0.0413,-0.0474,-0.0521,-0.0647,-0.0708,-0.0777,-0.0839,-0.0849,-0.0901,-0.0856,-0.0849,-0.0769,-0.0842,-0.0782,-0.0775,-0.0826,-0.0824,-0.0822,-0.0821,0,0,-0.0289,-0.0294,-0.0305,-0.0308,-0.0333,-0.034,-0.0424,-0.0493,-0.0542,-0.0648,-0.0717,-0.0865,-0.0877,-0.091,-0.0936,-0.0934,-0.0928,-0.0894,-0.089,-0.0816,-0.0842,-0.069,-0.0667,-0.0923,-0.0922,-0.0922,-0.0801,0,-0.0311,-0.0323,-0.0338,-0.0367,-0.0371,-0.0409,-0.0477,-0.0549,-0.0628,-0.0697,-0.0794,-0.0861,-0.0908,-0.0931,-0.0949,-0.0924,-0.0912,-0.0958,-0.0802,-0.0797,-0.0632,-0.0655,-0.092,-0.0795,-0.0793,-0.0792,-0.0791,0,-0.0338,-0.0336,-0.0364,-0.0389,-0.0401,-0.0433,-0.0522,-0.0582,-0.0687,-0.0748,-0.0828,-0.086,-0.09,-0.091,-0.0892,-0.0914,-0.0877,-0.0859,-0.0854,-0.0656,-0.0631,-0.0707,-0.0777,-0.0778,-0.0779,-0.078,-0.0781,0,-0.0347,-0.0364,-0.0383,-0.0386,-0.0419,-0.0472,-0.0515,-0.0618,-0.0652,-0.0743,-0.0741,-0.0827,-0.0803,-0.0816,-0.0781,-0.0826,-0.0713,-0.077,-0.0601,-0.059,-0.0715,-0.0713,-0.0728,-0.0728,-0.0728,-0.0728,-0.0729,0,-0.0356,-0.0372,-0.0384,-0.0389,-0.0415,-0.047,-0.0524,-0.0586,-0.0642,-0.0633,-0.0733,-0.069,-0.0766,-0.0715,-0.0737,-0.0611,-0.0669,-0.0575,-0.054,-0.0767,-0.0773,-0.0709,-0.0709,-0.0724,-0.0725,-0.0726,-0.0727,0,-0.0359,-0.0369,-0.0372,-0.0406,-0.0413,-0.044,-0.047,-0.0495,-0.0555,-0.0523,-0.0522,-0.0544,-0.0464,-0.0505,-0.0473,-0.0481,-0.0432,-0.0371,-0.0564,-0.0547,-0.0348,-0.0355,-0.0194,-0.0187,-0.0182,-0.0177,-0.0173,0,-0.0345,-0.0352,-0.0361,-0.0339,-0.0352,-0.0379,-0.0388,-0.0453,-0.0436,-0.0402,-0.0349,-0.0275,-0.0275,-0.0123,-0.0196,-0.0188,-0.0197,-0.0181,-0.0325,-0.0306,-0.029,-0.0306,-0.032,-0.0165,-0.0163,-0.0162,-0.016,0,-0.0304,-0.0328,-0.0327,-0.029,-0.0281,-0.0251,-0.0253,-0.0224,-0.0253,-0.0268,-0.0139,-0.0103,0.0017,-0.0,0.0046,0.002,-0.0218,-0.0124,-0.0139,-0.0274,-0.0269,-0.0262,-0.0282,-0.0141,-0.0144,-0.0146,-0.0147,0,-0.0263,-0.0247,-0.0249,-0.0222,-0.0195,-0.0138,-0.0151,-0.0089,-0.0076,-0.0039,0.0031,0.0069,0.0079,0.0121,0.0143,0.0161,0.0118,0.0058,0.0032,0.001,0.0015,0.0047,0.0335,0,0,0,0,0,-0.0177,-0.0172,-0.016,-0.0134,-0.0122,-0.01,-0.0054,-0.0066,-0.0059,0.0068,0.0046,0.0153,0.0219,0.0216,0.027,0.0206,0.0093,0.0265,0.0003,-0.0034,-0.0057,-0.0075,0,0,0,0,0,0,-0.0121,-0.0108,-0.0142,-0.0084,-0.0057,-0.0022,0.0009,0.0019,0.0086,0.01,0.0138,0.0159,0.021,0.0195,0.0268,0.027,0.0111,0.0283,0.0284,-0.0022,-0.0042,-0.006,-0.0086,0,0,0,0,0]},{"header":{"parameterUnit":"m.s-1","parameterCategory":2,"la1":30.2991,"la2":30.254,"lo1":-89.0895,"lo2":-89.0444,"dy":0.0017,"dx":0.0017,"nx":28,"ny":28,"refTime":"2024-11-25T09:00:00:Z","depth":"4","parameterNumber":3,"parameterNumberName":"V-component_of_CURRENTS"},"data":[0,0,0,0,0,0,0,0,0,0,0,0,0,0,0,0,0,0,0,0,0,0,0,0,0,0,0,0,0,0,0,0,0,0,0,0,0,0,0,0,0,0,0,0,0,0,0,0,0,0,0,0,0,0,0,0,0,0,0.0205,0.0206,0,0.0198,0.0198,0.0197,0.024,0.0242,0.0243,0.0245,0.0254,0.0253,0.0252,0,0,0,0,0,0,0,0,0,0,0,0,0,0.024,0.0239,0.0205,0.0206,0.0206,0.0198,0.0197,0.0197,0.024,0.0242,0.0244,0.0245,0.0254,0.0253,0.0251,0,0,0,0,0,0,0,0,0,0,0,0,0,0.0225,0.0239,0.0205,0.0229,0.0231,0.0198,0.0197,0.0197,0.024,0.0242,0.0244,0.0246,0.0255,0.0253,0.0251,0.0195,0,0,0.0246,0.0245,0,0,0,0,0,0,0,0,0.0226,0.0223,0.0225,0.0227,0.0229,0.0225,0.0213,0.0198,0.0239,0.0233,0.0245,0.0247,0.0246,0.0245,0.0234,0.0195,0.0196,0.0246,0.0245,0.0244,0.0243,0,0,0,0,0,0,0,0.0227,0.0224,0.0199,0.0225,0.0228,0.0234,0.0234,0.021,0.0225,0.0234,0.0238,0.0241,0.0247,0.0236,0.0235,0.0196,0.0246,0.0244,0.0243,0.0242,0.0208,0.0208,0,0,0,0,0,0,0.0232,0.0224,0.02,0.0199,0.0237,0.0232,0.0232,0.0222,0.0225,0.0228,0.0239,0.0243,0.0237,0.0237,0.0235,0.0257,0.0244,0.0242,0.0241,0.0208,0.0208,0.0209,0,0,0,0,0,0,0.0232,0.0229,0.02,0.0215,0.0213,0.0229,0.0217,0.022,0.023,0.0229,0.0233,0.0249,0.0239,0.0238,0.0227,0.0255,0.0241,0.024,0.0208,0.0208,0.0208,0.0245,0,0,0,0,0,0,0.0233,0.0229,0.0226,0.0215,0.0212,0.0186,0.0215,0.0219,0.0229,0.0235,0.0238,0.024,0.0241,0.023,0.0226,0.0252,0.0238,0.0208,0.0208,0.0208,0.0243,0.0246,0.0249,0,0,0,0,0,0.0234,0.0214,0.0225,0.0223,0.0206,0.0185,0.0183,0.0201,0.0228,0.0221,0.023,0.0241,0.023,0.0227,0.0223,0.025,0.0208,0.0208,0.0208,0.0242,0.0246,0.0249,0,0,0,0,0,0,0.0224,0.0216,0.0229,0.0207,0.0204,0.0194,0.0192,0.0204,0.0204,0.0218,0.0224,0.0225,0.0234,0.0223,0.0221,0.0241,0.0227,0.0227,0.0255,0.0258,0.0261,0.0251,0.0237,0,0,0,0,0,0.022,0.0205,0.0203,0.0186,0.0187,0.0192,0.019,0.0201,0.0199,0.0203,0.021,0.0218,0.0224,0.0227,0.0222,0.0214,0.0201,0.0233,0.0236,0.0238,0.0227,0.0236,0.0239,0.021,0.021,0.021,0,0,0.021,0.0206,0.0197,0.0184,0.0185,0.0159,0.0196,0.0192,0.0172,0.0201,0.0187,0.0221,0.0221,0.0228,0.0232,0.0228,0.0238,0.0239,0.0241,0.0228,0.0237,0.024,0.0243,0.021,0.021,0.021,0,0,0.0181,0.0182,0.0165,0.0152,0.0155,0.0147,0.015,0.0152,0.0162,0.0154,0.0183,0.0221,0.0218,0.0231,0.0236,0.0239,0.025,0.0263,0.0271,0.0281,0.0284,0.0286,0.0267,0.0267,0.0268,0.0268,0.0268,0,0.0174,0.0146,0.0156,0.0132,0.0114,0.014,0.0109,0.0103,0.0105,0.0115,0.0155,0.0198,0.0213,0.0223,0.0252,0.0245,0.0252,0.0263,0.0286,0.0287,0.0289,0.0269,0.0269,0.0269,0.0269,0.0269,0.0269,0,0.0129,0.0107,0.0093,0.0065,0.0045,0.0023,0.0016,0.0017,0.0052,0.0068,0.0112,0.0156,0.0197,0.0222,0.0246,0.0278,0.0278,0.0288,0.028,0.0294,0.0272,0.0271,0.0272,0.0271,0.0271,0.027,0,0,0.0124,0.0071,0.0072,0.0044,0.0009,-0.0013,-0.0047,-0.006,-0.0057,-0.0003,0.0016,0.0084,0.0169,0.018,0.0237,0.0262,0.0297,0.0302,0.0301,0.0286,0.0315,0.0234,0.0225,0.0334,0.0335,0.0335,0.0292,0,0.0094,0.0034,0.0011,-0.0056,-0.0091,-0.01,-0.0134,-0.0138,-0.0107,-0.0083,-0.0,0.0057,0.0132,0.0207,0.0239,0.0281,0.0299,0.0306,0.0299,0.0298,0.0228,0.0223,0.0335,0.0292,0.0291,0.0291,0.0291,0,0.0073,0.0029,-0.003,-0.0111,-0.0123,-0.0148,-0.0177,-0.0199,-0.017,-0.0127,-0.0044,0.0025,0.0097,0.0169,0.0229,0.0244,0.0289,0.0312,0.0311,0.0219,0.0215,0.0275,0.0289,0.0289,0.0289,0.029,0.029,0,0.0084,-0.0001,-0.0046,-0.0075,-0.0153,-0.0158,-0.0178,-0.0177,-0.0176,-0.0111,-0.0076,-0.0001,0.0072,0.013,0.0199,0.024,0.023,0.0278,0.0227,0.0221,0.0293,0.0291,0.0307,0.0307,0.0307,0.0307,0.0307,0,0.0058,0.0027,-0.0028,-0.0053,-0.0085,-0.0135,-0.0136,-0.0138,-0.0127,-0.0118,-0.005,-0.0024,0.008,0.0091,0.0157,0.0163,0.0195,0.0211,0.0204,0.0307,0.0307,0.0291,0.029,0.0306,0.0306,0.0306,0.0307,0,0.0097,0.005,0.0006,-0.0061,-0.0068,-0.0066,-0.0089,-0.0096,-0.0083,-0.0069,-0.0033,-0.0023,-0.0007,0.0023,0.0079,0.0099,0.0114,0.0109,0.017,0.017,0.0114,0.0115,0.0061,0.0058,0.0055,0.0053,0.0051,0,0.0119,0.0096,0.0045,0.0046,0.0038,0.003,0.002,-0.0022,-0.004,-0.0074,-0.0078,-0.0074,-0.0059,-0.0056,-0.004,-0.001,0.0019,0.0013,0.0117,0.0089,0.0088,0.0094,0.0098,0.0046,0.0046,0.0045,0.0044,0,0.0148,0.0148,0.0102,0.0131,0.0127,0.0072,0.005,0.005,-0.0015,-0.0034,-0.0052,-0.005,-0.0086,-0.0068,-0.008,-0.0043,0.001,-0.0014,-0.0005,0.0092,0.0071,0.0074,0.0082,0.0035,0.0036,0.0037,0.0038,0,0.02,0.0179,0.0157,0.0199,0.0206,0.0166,0.0107,0.0065,0.0031,-0.0011,-0.003,-0.0049,-0.0069,-0.0094,-0.0106,-0.01,-0.0053,0.0001,0.0011,0.0021,0.0019,-0.0014,-0.0095,0,0,0,0,0,0.0237,0.0219,0.0231,0.0236,0.0272,0.0267,0.0153,0.0071,0.0009,0.0021,0.0006,-0.0015,-0.0039,-0.0078,-0.0071,-0.0163,-0.0078,-0.0162,-0.0015,-0.0018,-0.0007,-0.001,0,0,0,0,0,0,0.0238,0.0233,0.0229,0.0322,0.0379,0.0335,0.0277,0.0171,0.0153,0.0115,0.0105,0.005,0.0019,0.0036,-0.0019,-0.004,0.0057,-0.0194,-0.0194,-0.0024,-0.0014,-0.0005,-0.0005,0,0,0,0,0]}]]